SL-12 R/B(2)

Satellite information

Favourite Embed

Satellite Type and Status

ROCKET BODYIN ORBIT

Key statistics

Satellite SL-12 R/B(2) at a glance.

Uptime

11188

Days in orbit

Revolutions

≈ 2.1

Per day

Orbit

MEO

Medium Earth Orbit

Inclination

64.7

Latest

Satellite identification and parameters

Extended collection of information and parameters for SL-12 R/B(2).

Object identification

Identified? True

Debris? False

Object name: SL-12 R/B(2)

International designator: 1994-076F

Object number (NORAD): 23401

Object ID (CCSDS): 23401

Country: COMMONWEALTH OF INDEPENDENT STATES (CIS)

Current information (Y/N): Y

RCS size: LARGE

Orbital parameters

Period: 674.296 minutes

Inclination: 64.664 deg

SMA: 25471.842 km

Apoapsis: 19122.697 km

Periapsis: 19064.718 km

RAAN: 79.0134 deg

Eccentricy: 0.0011381

Argument of periapsis: 292.6997 deg

Mean anomaly: 240.3712 deg

Mean motion: 2.13556221 rev/day

Mean motion (dot): -0.00000054 rev/day2

B* drag term: 0.0 1/REarth

Two-line elements (TLE)

Creation date: July 6, 2025, 4:10 a.m.

Reference frame: TEME

Reference center: EARTH

Epoch: July 5, 2025, 6:20 a.m. UTC

TLE line 0: 0 SL-12 R/B(2)

TLE line 1: 1 23401U 94076F 25186.26426929 -.00000054 00000-0 00000-0 0 9998

TLE line 2: 2 23401 64.6640 79.0134 0011381 292.6997 240.3712 2.13556221238807

Live tracking on map

Real-time ground track for satellite SL-12 R/B(2).

In-orbit conjunctions

A list of the most updated potential collisions computed for object SL-12 R/B(2).

Target Orbit TCA Probability of collision Miss distance Type
COSMOS 1555 (GLONASS) MEO 2025-03-01 15:06:11 TBA 1414.0 (m) PAYLOAD

Associated space launch

GLONASS navigation satellites

SL-12 R/B(2) was lifted into orbit during the mission ‘Proton | Uragan 60 to 62’, on board a Proton space rocket.

The launch took place on Nov. 20, 1994, 12:39 a.m. from 200/39 (200L).

For more information about the launch, click the button.

Launch to space Proton | Uragan 60 to 62
Proton | Uragan 60 to 62

Agency: N/A

Status: Launch Successful

Launch date: Nov. 20, 1994, 12:39 a.m. UTC

Rocket: Proton

Launch pad: 200/39 (200L)

Location: Baikonur Cosmodrome, Republic of Kazakhstan

...

Latest news about this satellite

There are no fresh news available about this satellite. Check back as we update our databases every day.


Newsletter sign-up

Weekly statistics, charts and insights to help you stay on top of the space industry.